Regional Weather Roundup
Issued by NWS

Home | Current Version | Previous Version | Text Only | Print | Product List | Glossary On
Versions: 1 2 3 4 5 6 7 8 9 10 11 12 13 14 15 16 17 18 19 20 21 22 23 24 25 26 27 28 29 30 31 32 33 34 35 36 37 38 39 40 41 42 43 44 45 46 47 48 49 50
000
ASUS43 KDMX 301608
RWRIA

WEATHER ROUNDUP FOR IOWA
NATIONAL WEATHER SERVICE DES MOINES IA
1100 AM CDT SAT JUL 30 2016

NOTE: "FAIR" INDICATES FEW OR NO CLOUDS BELOW 12,000 FEET WITH NO
SIGNIFICANT WEATHER AND/OR OBSTRUCTIONS TO VISIBILITY.

* - THESE STATIONS ARE NOT NWS STATIONS...THUS NOT UNDER NWS
QUALITY CONTROL.  THEY ALSO DO NOT REPORT WEATHER SUCH
AS PRECIPITATION OR FOG.

IAZ001>003-012>014-020>022-031>034-043>046-301700-
   NORTHWEST IOWA

CITY           SKY/WX    TMP DP  RH WIND       PRES   REMARKS
CARROLL *      MOSUNNY   73  64  73 VRB3      30.04S
CHEROKEE *     MOSUNNY   74  61  65 CALM      30.04F
DENISON *      MOSUNNY   73  64  73 SW3       30.02F
LE MARS *      SUNNY     75  63  64 S7        30.04F
SHELDON *      MOSUNNY   73  61  64 VRB3      30.03F
SIOUX CITY     SUNNY     76  63  64 VRB6      30.02F
SPENCER        SUNNY     74  56  53 CALM      30.05S
STORM LAKE *   MOSUNNY   73  63  68 CALM      30.05F
$$

IAZ055>058-069>071-079>083-090>094-301700-
   SOUTHWEST IOWA

CITY           SKY/WX    TMP DP  RH WIND       PRES   REMARKS
ATLANTIC *     CLOUDY    73  63  68 CALM      30.04S
CLARINDA *       N/A     77  66  69 MISG      30.06S
COUNCIL BLFS * CLOUDY    72  64  78 VRB5      30.05R
CRESTON *      PTSUNNY   72  64  78 NW3       30.06S
HARLAN  *      MOSUNNY   73  64  73 CALM      30.08R
LAMONI         PTSUNNY   72  63  73 N5        30.04S
RED OAK *      PTSUNNY   73  66  78 CALM      30.05R
SHENANDOAH *   MOSUNNY   73  68  83 N5        30.04S
$$

IAZ047>049-059>061-072>074-084-301700-
   CENTRAL IOWA

CITY           SKY/WX    TMP DP  RH WIND       PRES   REMARKS
AMES           CLOUDY    73  68  84 NE5       30.04R
ANKENY *         N/A    N/A N/A N/A MISG        N/A
BOONE *        PTSUNNY   72  64  78 CALM      30.04S
CHARITON *       N/A    N/A N/A N/A MISG        N/A
DES MOINES     CLOUDY    76  65  68 N6        30.03R
GRINNELL*      CLOUDY    71  65  82 CALM      30.04S
KNOXVILLE *    CLOUDY    72  66  83 N6        30.02S
MARSHALLTOWN   CLOUDY    72  66  81 NW5       30.03R
NEWTON *       CLOUDY    72  68  88 N6        30.03S
PELLA *        PTSUNNY   70  67  88 NW3       30.04S
PERRY *        PTSUNNY   74  67  79 CALM      30.04S
$$

IAZ004>006-015-016-023>025-035-036-301700-
   NORTH CENTRAL IOWA

CITY           SKY/WX    TMP DP  RH WIND       PRES   REMARKS
ALGONA *       CLOUDY    72  64  78 CALM      30.06R
ESTHERVILLE    SUNNY     73  58  59 CALM      30.05S
FORT DODGE *   CLOUDY    70  64  83 CALM      30.06R
MASON CITY     CLOUDY    72  65  78 VRB3      30.06S
FOREST CITY *  CLOUDY    72  63  73 CALM      30.06R
IOWA FALLS *   CLOUDY    72  65  80 CALM      30.06S
$$

IAZ007>011-017>019-026>030-037>042-050>054-066-301700-
   NORTHEAST IOWA

CITY           SKY/WX    TMP DP  RH WIND       PRES   REMARKS
CEDAR RAPIDS   CLOUDY    73  67  81 N3        30.01R
CHARLES CITY * PTSUNNY   72  66  83 CALM      30.05R
CLINTON *      CLOUDY    74  68  81 E6        30.01R
DECORAH *      PTSUNNY   72  66  83 CALM      30.03R
DUBUQUE        CLOUDY    73  67  81 NE5       30.02S
MONTICELLO *   CLOUDY    73  68  83 VRB7      30.01R
OELWEIN *      PTSUNNY   73  66  78 NE6       30.03S
WATERLOO       PTSUNNY   75  64  68 N6        30.02R
$$

IAZ064-065-067-068-078-301700-
   EAST CENTRAL IOWA

CITY           SKY/WX    TMP DP  RH WIND       PRES   REMARKS
DAVENPORT      CLOUDY    73  67  81 E3        30.00R
IOWA CITY      CLOUDY    76  67  73 VRB5      30.02R
MT. PLEASANT * SUNNY     77  69  75 NW5       30.00R
MUSCATINE *    CLOUDY    73  68  83 N6        30.00R
QUAD CITIES    CLOUDY    77  67  71 E6        29.99R
$$

IAZ062-063-075>077-085>089-095>099-301700-
   SOUTHEAST IOWA

CITY           SKY/WX    TMP DP  RH WIND       PRES   REMARKS
BURLINGTON     MOSUNNY   77  68  73 N6        29.99R
FAIRFIELD *    PTSUNNY   73  66  78 NW3       30.01R
KEOKUK *       MOSUNNY   75  66  73 VRB5      30.00R
OSKALOOSA *    CLOUDY    71  67  86 NW3       30.02S
CENTERVILLE *    N/A     73  64  73 NW8       30.04S
OTTUMWA        CLOUDY    72  65  78 N5        30.02R
WASHINGTON *   CLOUDY    73  68  83 CALM      30.02R
$$

ABBREVIATIONS USED IN REMARKS
   TC - TEMPERATURES IN CELSIUS
  WCI - WIND CHILL INDEX
   HX - HEAT INDEX
  VSB - VISIBILITY
$$





USA.gov is the U.S. government's official web portal to all federal, state and local government web resources and services.